This is the latest recevied weather packets stored in our database for station/object KN6ZYR. If no packets are shown the sender has not sent any weather packets the latest 10 day(s).
| Time | Temp. | Humidity | Pressure | Rain* | Wind** | Luminosity | Snow |
|---|---|---|---|---|---|---|---|
| 1777623158 | 14.44° C | 26% | 1021 hPa | 0 mm | - | 0 W/m² | - |
| 1777622855 | 14.44° C | 27% | 1021 hPa | 0 mm | - | 0 W/m² | - |
| 1777622551 | 14.44° C | 27% | 1021 hPa | 0 mm | - | 0 W/m² | - |
| 1777622248 | 15° C | 26% | 1021.3 hPa | 0 mm | - | 0 W/m² | - |
| 1777621946 | 15.56° C | 25% | 1020.9 hPa | 0 mm | - | 0 W/m² | - |
| 1777621641 | 15.56° C | 25% | 1020.9 hPa | 0 mm | - | 0 W/m² | - |
| 1777621337 | 15.56° C | 25% | 1020.9 hPa | 0 mm | - | 0 W/m² | - |
| 1777621032 | 16.11° C | 24% | 1020.7 hPa | 0 mm | - | 0 W/m² | - |
| 1777620729 | 15.56° C | 25% | 1020.8 hPa | 0 mm | - | 0 W/m² | - |
| 1777620425 | 16.11° C | 25% | 1020.7 hPa | 0 mm | - | 0 W/m² | - |
| 1777620122 | 16.11° C | 24% | 1020.8 hPa | 0 mm | - | 0 W/m² | - |
| 1777619818 | 16.11° C | 24% | 1020.9 hPa | 0 mm | - | 0 W/m² | - |
| 1777619514 | 15.56° C | 24% | 1020.8 hPa | 0 mm | - | 0 W/m² | - |
| 1777619209 | 15.56° C | 25% | 1020.8 hPa | 0 mm | - | 0 W/m² | - |
| 1777618904 | 15.56° C | 25% | 1020.7 hPa | 0 mm | - | 0 W/m² | - |
| 1777618603 | 16.11° C | 24% | 1020.6 hPa | 0 mm | - | 0 W/m² | - |
| 1777618300 | 16.11° C | 24% | 1020.5 hPa | 0 mm | - | 0 W/m² | - |
| 1777617997 | 16.11° C | 24% | 1020.7 hPa | 0 mm | - | 0 W/m² | - |
| 1777617693 | 16.11° C | 24% | 1020.4 hPa | 0 mm | - | 0 W/m² | - |
| 1777617388 | 16.11° C | 24% | 1020.4 hPa | 0 mm | - | 0 W/m² | - |
| 1777617087 | 16.11° C | 24% | 1020.4 hPa | 0 mm | - | 0 W/m² | - |
| 1777616780 | 16.67° C | 23% | 1020.2 hPa | 0 mm | - | 0 W/m² | - |
| 1777616476 | 16.67° C | 23% | 1020.2 hPa | 0 mm | - | 0 W/m² | - |
| 1777616172 | 16.67° C | 22% | 1020 hPa | 0 mm | - | 0 W/m² | - |
| 1777615869 | 17.22° C | 22% | 1019.9 hPa | 0 mm | - | 0 W/m² | - |
* Rain latest hour (hover to see other rain measurements)
** Current wind speed in m/s (hover to see current wind gust speed)